Location: Aix-en-Ergny
(50.5839°N, 1.9996°E)
Time: 13:09:21
(UTC+00:00)

Cosmos 2297 - Pass Details

Date: 23 October 2019
Orbit: 834 x 860 km, 71.0° (Epoch: 14 November)

Event Time Altitude Azimuth Distance (km) Brightness Sun altitude
Exits shadow 03:23:23 26° 344° (NNW) 1,631 5.2 -29.5°
Maximum altitude 03:26:36 60° 56° (NE) 985 4.2 -29.0°
Drops below altitude 10° 03:32:15 10° 136° (SE) 2,489 6.4 -28.2°
Sets 03:34:44 0° 140° (SE) 3,420 7.1 -27.8°
